Location: ??????????
(54.8537°N, 38.8755°E)
Time: 11:43:01
(UTC+00:00)

A-11 Canister half - Visible Passes

Search period start: 07 September 2024 00:00
Search period end: 17 September 2024 00:00
Orbit: 1523 x 1684 km, 47.3° (Epoch: 07 September)

Date Brightness Start Highest point End Pass type
(mag) Time Alt. Az. Time Alt. Az. Time Alt. Az.
07 Sep 9.5 17:48:10 10° W 17:57:32 48° SSW 18:04:03 22° SE visible
07 Sep 10.1 19:53:17 10° W 20:00:55 25° SW 20:02:19 25° SSW visible
08 Sep 9.6 17:26:25 10° W 17:35:47 49° SSW 17:43:12 18° SE visible
08 Sep 10.1 19:31:27 10° W 19:39:13 26° SW 19:41:28 24° SSW visible
09 Sep 9.6 17:04:40 10° W 17:14:02 50° SSW 17:22:23 14° SE visible
09 Sep 10.1 19:09:37 10° W 19:17:31 27° SW 19:20:39 23° SSW visible
10 Sep 9.6 16:42:54 10° W 16:52:16 50° SSW 17:01:36 11° SE visible
10 Sep 10.2 18:47:48 10° W 18:55:48 29° SW 18:59:52 22° S visible
11 Sep 9.6 16:21:10 10° W 16:30:32 51° SSW 16:40:07 10° SE visible
11 Sep 10.2 18:26:00 10° W 18:34:05 30° SW 18:39:09 20° S visible
12 Sep 10.2 18:04:11 10° W 18:12:23 31° SW 18:18:28 17° S visible
13 Sep 10.2 17:42:23 10° W 17:50:40 32° SW 17:57:51 14° SSE visible
13 Sep 11.0 19:52:02 10° WSW 19:53:07 10° WSW 19:54:12 10° SW visible
14 Sep 10.2 17:20:36 10° W 17:28:58 33° SW 17:37:17 11° SSE visible
14 Sep 11.0 19:29:04 10° WSW 19:31:28 11° WSW 19:33:53 10° SW visible
15 Sep 10.2 16:58:49 10° W 17:07:15 34° SW 17:15:51 10° SSE visible
15 Sep 11.0 19:06:38 10° WSW 19:09:50 12° SW 19:13:02 10° SW visible
16 Sep 10.2 16:37:02 10° W 16:45:32 35° SSW 16:54:13 10° SSE visible
16 Sep 11.0 18:44:23 10° WSW 18:48:10 13° SW 18:51:59 10° SSW visible
